Weather History for KMHE - June, 2013

Change the Weather History Date:

Saturday, June 15, 2013

  Actual Average Record
Temperature  
Mean Temperature 71 °F 70 °F  
Max Temperature 83 °F 81 °F 103 °F (1959)
Min Temperature 59 °F 58 °F 37 °F (1917)
Degree Days  
Heating Degree Days 0 1  
Month to date heating degree days 50 27  
Since 1 June heating degree days 50 27  
Since 1 July heating degree days 7651 7237  
Cooling Degree Days 6 5  
Month to date cooling degree days 31 56  
Year to date cooling degree days 88 96  
Since 1 June cooling degree days 31 56  
Growing Degree Days 22 (Base 50)    
Moisture  
Dew Point 55 °F    
Average Humidity 57    
Maximum Humidity 87    
Minimum Humidity 26    
Precipitation  
Precipitation T in 0.15 in 1.92 in (1967)
Month to date precipitation 1.32 2.31  
Year to date precipitation 11.27 9.04  
Snow  
Snow 0.00 in - 0.00 in ()
Month to date snowfall 0.0  
Since 1 June snowfall 0.0  
Since 1 July snowfall 54.5  
Snow Depth 0.00 in    
Sea Level Pressure  
Sea Level Pressure 29.92 in    
Wind  
Wind Speed 7 mph (North)    
Max Wind Speed 28 mph    
Max Gust Speed 37 mph    
Visibility 10 miles    
Events Rain    
T = Trace of Precipitation, MM = Missing Value Source: NWS Daily Summary

Daily Weather History Graph

Daily Weather History Graph

Search for Another Location

Airport or City:

Trip Planner

Search our weather history database for the weather conditions in past years. The results will help you decide how hot, cold, wet, or windy it might be!

Date:

Astronomy

Jun. 15, 2013 Rise Set
Actual Time 5:49 AM CDT 9:16 PM CDT
Civil Twilight 5:13 AM CDT 9:52 PM CDT
Nautical Twilight 4:26 AM CDT 10:39 PM CDT
Astronomical Twilight 3:26 AM CDT 11:39 PM CDT
Moon 12:37 PM CDT (6/15) 12:41 AM CDT (6/15)
Length of Visible Light 16h 38m
Length of Day
15h 26m
Waxing Crescent, 40% of the Moon is Illuminated
Jun 15
Waxing Crescent
Jun 16
First Quarter
Jun 23
Full
Jun 29
Last Quarter
Jul 8
New

Hourly Weather History & Observations

Time (CDT) Temp. Heat Index Dew Point Humidity Pressure Visibility Wind Dir Wind Speed Gust Speed Precip Events Conditions
12:53 AM 70.0 °F - 64.0 °F 81% 29.83 in 10.0 mi West 4.6 mph - N/A   Clear
1:53 AM 68.0 °F - 63.0 °F 84% 29.84 in 10.0 mi NW 8.1 mph - N/A   Clear
2:53 AM 66.9 °F - 63.0 °F 87% 29.86 in 10.0 mi North 4.6 mph - N/A   Clear
3:53 AM 66.9 °F - 63.0 °F 87% 29.89 in 10.0 mi Calm Calm - N/A   Clear
4:53 AM 66.0 °F - 62.1 °F 87% 29.90 in 10.0 mi NW 11.5 mph - N/A   Mostly Cloudy
5:53 AM 64.9 °F - 57.9 °F 78% 29.90 in 10.0 mi NNW 9.2 mph - N/A   Clear
6:53 AM 64.0 °F - 55.9 °F 75% 29.91 in 10.0 mi North 12.7 mph - N/A   Clear
7:53 AM 63.0 °F - 55.0 °F 75% 29.95 in 10.0 mi NNW 10.4 mph - N/A   Clear
8:53 AM 63.0 °F - 55.0 °F 75% 29.98 in 10.0 mi North 3.5 mph - 0.00 in Rain Light Rain
9:53 AM 62.1 °F - 57.0 °F 84% 29.95 in 10.0 mi North 6.9 mph - 0.00 in Rain Light Rain
10:46 AM 66.2 °F - 59.0 °F 78% 29.95 in 10.0 mi NE 9.2 mph - 0.00 in   Partly Cloudy
10:53 AM 66.0 °F - 59.0 °F 78% 29.94 in 10.0 mi NNE 8.1 mph - 0.00 in   Clear
11:53 AM 73.0 °F - 57.9 °F 59% 29.93 in 10.0 mi NNE 11.5 mph - N/A   Clear
12:53 PM 78.1 °F - 55.9 °F 46% 29.94 in 10.0 mi NE 9.2 mph - N/A   Clear
1:53 PM 80.1 °F 79.9 °F 53.1 °F 39% 29.94 in 10.0 mi North 8.1 mph - N/A   Clear
2:53 PM 82.0 °F - 50.0 °F 33% 29.94 in 10.0 mi NNE 8.1 mph - N/A   Clear
3:53 PM 82.0 °F - 45.0 °F 27% 29.94 in 10.0 mi NNE 9.2 mph - N/A   Clear
4:53 PM 82.0 °F - 48.0 °F 30% 29.92 in 10.0 mi ENE 9.2 mph - N/A   Clear
5:53 PM 82.0 °F - 45.0 °F 27% 29.91 in 10.0 mi NNE 9.2 mph - N/A   Clear
6:53 PM 81.0 °F - 46.9 °F 30% 29.90 in 10.0 mi NNW 4.6 mph - N/A   Clear
7:53 PM 80.1 °F - 50.0 °F 35% 29.90 in 10.0 mi NNE 3.5 mph - N/A   Clear
8:53 PM 75.0 °F - 53.1 °F 46% 29.91 in 10.0 mi North 3.5 mph - N/A   Clear
9:53 PM 72.0 °F - 51.1 °F 48% 29.94 in 10.0 mi NW 3.5 mph - N/A   Clear
10:53 PM 68.0 °F - 52.0 °F 56% 29.96 in 10.0 mi West 3.5 mph - N/A   Clear
11:53 PM 64.0 °F - 57.0 °F 78% 29.96 in 10.0 mi SSW 3.5 mph - N/A   Clear